When you browse on this site, cookies collect data to enhance your experience and personalize the content and advertising you see.
Visit our Privacy Policy to learn more. By continuing to use the site, you agree to this use of cookies and data.
  • In Switzerland
  • List of Countries
  • For 7 days
  • Water Temperature
  • Satellite Maps
  • Weather Map
  • Weather Widgets
  • user-avatar
    Login

    Hourly Weather Satif

    Today, 23 January, Wednesday

    Time Temperature Precipitation Wind Pressure Humidity
    00:00 -1°C° 0 mm 3 mps 663 mmHg 80%
    01:00 -1°C° 0 mm 3 mps 662 mmHg 82%
    02:00 -1°C° 0 mm 3 mps 662 mmHg 84%
    03:00 -1°C° 0 mm 2 mps 661 mmHg 85%
    04:00 -1°C° 0.1 mm 2 mps 661 mmHg 87%
    05:00 -1°C° 0.1 mm 2 mps 661 mmHg 88%
    06:00 +1°C° 0.1 mm 2 mps 661 mmHg 90%
    07:00 0°C° 0.6 mm 3 mps 661 mmHg 88%
    08:00 0°C° 0.6 mm 4 mps 661 mmHg 87%
    09:00 0°C° 0.6 mm 4 mps 661 mmHg 85%
    10:00 +1°C° 0.1 mm 5 mps 661 mmHg 81%
    11:00 +1°C° 0.1 mm 6 mps 660 mmHg 77%
    12:00 +2°C° 0.1 mm 7 mps 660 mmHg 74%
    13:00 +2°C° 0.5 mm 7 mps 660 mmHg 74%
    14:00 +3°C° 0.5 mm 7 mps 659 mmHg 75%
    15:00 +3°C° 0.5 mm 7 mps 659 mmHg 76%
    16:00 +2°C° 1.4 mm 8 mps 658 mmHg 81%
    17:00 +1°C° 1.4 mm 8 mps 658 mmHg 85%
    18:00 +1°C° 1.4 mm 9 mps 657 mmHg 90%
    19:00 +1°C° 1.8 mm 8 mps 657 mmHg 91%
    20:00 +2°C° 1.8 mm 6 mps 657 mmHg 92%
    21:00 +2°C° 1.8 mm 5 mps 657 mmHg 93%
    22:00 +2°C° 1.3 mm 5 mps 657 mmHg 93%
    23:00 +2°C° 1.3 mm 5 mps 656 mmHg 92%

    Tomorrow, 24 January, Thursday

    Time Temperature Precipitation Wind Pressure Humidity
    00:00 +2°C° 1.3 mm 6 mps 656 mmHg 92%
    01:00 0°C° 1 mm 8 mps 656 mmHg 90%
    02:00 0°C° 1 mm 10 mps 656 mmHg 87%
    03:00 -1°C° 1 mm 12 mps 656 mmHg 85%
    04:00 -2°C° 3.2 mm 10 mps 656 mmHg 89%
    05:00 -1°C° 3.2 mm 7 mps 656 mmHg 93%
    06:00 -1°C° 3.2 mm 5 mps 656 mmHg 96%
    07:00 -3°C° 2.2 mm 6 mps 656 mmHg 95%
    08:00 -3°C° 2.2 mm 7 mps 656 mmHg 94%
    09:00 -5°C° 2.2 mm 8 mps 657 mmHg 93%
    10:00 -5°C° 0.3 mm 10 mps 657 mmHg 89%
    11:00 -4°C° 0.3 mm 11 mps 658 mmHg 86%
    12:00 -5°C° 0.3 mm 12 mps 658 mmHg 83%
    13:00 -5°C° 0.1 mm 12 mps 659 mmHg 84%
    14:00 -5°C° 0.1 mm 12 mps 659 mmHg 85%
    15:00 -4°C° 0.1 mm 11 mps 659 mmHg 85%
    16:00 -4°C° 0.1 mm 10 mps 659 mmHg 87%
    17:00 -4°C° 0.1 mm 9 mps 660 mmHg 89%
    18:00 -4°C° 0.1 mm 7 mps 660 mmHg 91%
    19:00 -5°C° 0.1 mm 8 mps 661 mmHg 91%
    20:00 -5°C° 0.1 mm 8 mps 661 mmHg 91%
    21:00 -4°C° 0.1 mm 8 mps 662 mmHg 91%
    22:00 -5°C° 0.1 mm 8 mps 662 mmHg 91%
    23:00 -4°C° 0.1 mm 7 mps 662 mmHg 91%

    Day after tomorrow, 25 January, Friday

    Time Temperature Precipitation Wind Pressure Humidity
    00:00 -4°C° 0.1 mm 7 mps 662 mmHg 91%
    01:00 -4°C° 0.1 mm 6 mps 662 mmHg 92%
    02:00 -4°C° 0.1 mm 5 mps 663 mmHg 93%
    03:00 -3°C° 0.1 mm 4 mps 663 mmHg 94%
    04:00 -3°C° 0.1 mm 4 mps 663 mmHg 95%
    05:00 -3°C° 0.1 mm 4 mps 663 mmHg 95%
    06:00 -3°C° 0.1 mm 4 mps 663 mmHg 95%
    07:00 -4°C° 0.1 mm 5 mps 664 mmHg 94%
    08:00 -4°C° 0.1 mm 5 mps 665 mmHg 93%
    09:00 -2°C° 0.1 mm 5 mps 665 mmHg 92%
    10:00 -2°C° 0.2 mm 5 mps 665 mmHg 94%
    11:00 -2°C° 0.2 mm 5 mps 665 mmHg 96%
    12:00 -2°C° 0.2 mm 4 mps 665 mmHg 98%
    13:00 -1°C° 0 mm 4 mps 665 mmHg 97%
    14:00 -1°C° 0 mm 4 mps 665 mmHg 96%
    15:00 -1°C° 0 mm 5 mps 664 mmHg 95%
    16:00 -2°C° 0 mm 4 mps 664 mmHg 93%
    17:00 -2°C° 0 mm 4 mps 664 mmHg 92%
    18:00 -3°C° 0 mm 4 mps 664 mmHg 90%
    19:00 -3°C° 0.1 mm 4 mps 664 mmHg 90%
    20:00 -3°C° 0.1 mm 4 mps 664 mmHg 90%
    21:00 -3°C° 0.1 mm 4 mps 664 mmHg 89%
    22:00 -2°C° 0.5 mm 4 mps 665 mmHg 92%
    23:00 -1°C° 0.5 mm 4 mps 665 mmHg 94%

    26 January, Saturday

    Time Temperature Precipitation Wind Pressure Humidity
    00:00 -1°C° 0.5 mm 4 mps 665 mmHg 97%
    01:00 -1°C° 0.6 mm 4 mps 665 mmHg 97%
    02:00 -1°C° 0.6 mm 4 mps 665 mmHg 98%
    03:00 -1°C° 0.6 mm 4 mps 665 mmHg 99%
    04:00 -1°C° 0.2 mm 5 mps 666 mmHg 99%
    05:00 -1°C° 0.2 mm 5 mps 666 mmHg 99%
    06:00 -2°C° 0.2 mm 6 mps 666 mmHg 99%
    07:00 -2°C° 0 mm 6 mps 667 mmHg 97%
    08:00 -2°C° 0 mm 7 mps 668 mmHg 96%
    09:00 -2°C° 0 mm 7 mps 669 mmHg 95%
    10:00 -2°C° 0 mm 7 mps 669 mmHg 95%
    11:00 -2°C° 0 mm 7 mps 669 mmHg 94%
    12:00 -1°C° 0 mm 7 mps 670 mmHg 94%
    13:00 -1°C° 0 mm 7 mps 669 mmHg 93%
    14:00 -1°C° 0 mm 6 mps 669 mmHg 92%
    15:00 0°C° 0 mm 5 mps 669 mmHg 91%
    16:00 -1°C° 0 mm 4 mps 669 mmHg 91%
    17:00 0°C° 0 mm 3 mps 669 mmHg 91%
    18:00 -1°C° 0 mm 2 mps 669 mmHg 92%
    19:00 -1°C° 0 mm 2 mps 669 mmHg 91%
    20:00 -1°C° 0 mm 2 mps 669 mmHg 91%
    21:00 -1°C° 0 mm 2 mps 669 mmHg 90%
    22:00 -1°C° 0 mm 2 mps 669 mmHg 89%
    23:00 -1°C° 0 mm 2 mps 669 mmHg 88%

    27 January, Sunday

    Time Temperature Precipitation Wind Pressure Humidity
    00:00 -1°C° 0 mm 2 mps 669 mmHg 87%
    01:00 -1°C° 0 mm 2 mps 668 mmHg 85%
    02:00 -1°C° 0 mm 2 mps 668 mmHg 83%
    03:00 -1°C° 0 mm 2 mps 668 mmHg 80%
    04:00 -1°C° 0 mm 2 mps 667 mmHg 79%
    05:00 -1°C° 0 mm 2 mps 667 mmHg 78%
    06:00 -1°C° 0 mm 2 mps 667 mmHg 77%
    07:00 +1°C° 0 mm 2 mps 667 mmHg 79%
    08:00 +2°C° 0 mm 2 mps 667 mmHg 82%
    09:00 +3°C° 0 mm 2 mps 667 mmHg 84%
    10:00 +3°C° 0 mm 3 mps 667 mmHg 82%
    11:00 +4°C° 0 mm 4 mps 667 mmHg 81%
    12:00 +5°C° 0 mm 4 mps 666 mmHg 79%
    13:00 +6°C° 0 mm 4 mps 666 mmHg 76%
    14:00 +6°C° 0 mm 5 mps 666 mmHg 73%
    15:00 +6°C° 0 mm 5 mps 665 mmHg 70%
    16:00 +5°C° 0 mm 4 mps 665 mmHg 74%
    17:00 +4°C° 0 mm 4 mps 664 mmHg 78%
    18:00 +3°C° 0 mm 3 mps 664 mmHg 81%
    19:00 +2°C° 0.2 mm 3 mps 664 mmHg 85%
    20:00 +2°C° 0.2 mm 3 mps 664 mmHg 89%
    21:00 +2°C° 0.2 mm 3 mps 664 mmHg 92%
    22:00 +2°C° 0.4 mm 3 mps 664 mmHg 93%
    23:00 +3°C° 0.4 mm 2 mps 664 mmHg 95%

    28 January, Monday

    Time Temperature Precipitation Wind Pressure Humidity
    00:00 +3°C° 0.4 mm 2 mps 664 mmHg 96%
    01:00 +2°C° 1.2 mm 3 mps 664 mmHg 96%
    02:00 +2°C° 1.2 mm 3 mps 663 mmHg 96%
    03:00 +1°C° 1.2 mm 3 mps 663 mmHg 96%
    04:00 +1°C° 1.1 mm 3 mps 663 mmHg 96%
    05:00 +1°C° 1.1 mm 3 mps 663 mmHg 96%
    06:00 0°C° 1.1 mm 3 mps 663 mmHg 97%
    07:00 0°C° 0.7 mm 3 mps 663 mmHg 95%
    08:00 0°C° 0.7 mm 3 mps 663 mmHg 94%
    09:00 0°C° 0.7 mm 3 mps 664 mmHg 93%
    10:00 0°C° 0.8 mm 3 mps 664 mmHg 92%
    11:00 0°C° 0.8 mm 3 mps 664 mmHg 90%
    12:00 -1°C° 0.8 mm 4 mps 664 mmHg 89%
    13:00 -1°C° 0.5 mm 4 mps 663 mmHg 88%
    14:00 -1°C° 0.5 mm 4 mps 663 mmHg 87%
    15:00 -1°C° 0.5 mm 5 mps 663 mmHg 86%
    16:00 -2°C° 0.4 mm 4 mps 663 mmHg 87%
    17:00 -2°C° 0.4 mm 4 mps 664 mmHg 89%
    18:00 -2°C° 0.4 mm 3 mps 664 mmHg 90%
    19:00 -3°C° 0.5 mm 4 mps 664 mmHg 90%
    20:00 -3°C° 0.5 mm 4 mps 664 mmHg 90%
    21:00 -3°C° 0.5 mm 4 mps 664 mmHg 90%
    22:00 -3°C° 0.6 mm 4 mps 664 mmHg 91%
    23:00 -3°C° 0.6 mm 4 mps 664 mmHg 92%
    Show more